RH
33 42 40 38 51 60 66 55 62 71 92 81 69 72 62 45 34 32 30 27 26 26 24 24 23 22 22 22 24 27 27 26 29 31 30 35 30 24 21 18 21 25 22 18
34 40 42 40 43 54 65 52 54 63 77 68 52 46 42 41 40 37 32 29 27 26 27 28 27 25 26 27 29 29 27 30 34 36 39 32 26 24 20 19 24 22 18 20
38 35 39 42 40 48 56 58 53 55 61 58 48 41 38 37 38 38 37 34 32 31 31 32 31 30 30 32 30 31 36 42 42 36 35 33 27 23 20 22 23 19 19 23
36 35 31 41 44 45 49 52 59 51 52 54 46 42 40 42 42 41 41 39 38 36 34 36 35 34 35 36 42 47 44 39 37 39 36 32 28 23 21 24 21 20 24 28
30 38 32 35 43 41 43 48 50 44 45 48 51 48 46 44 43 42 42 41 40 40 39 40 41 42 42 43 46 40 41 43 44 42 38 35 26 26 25 22 21 22 28 31
26 39 36 33 39 42 43 45 48 46 42 41 45 44 50 47 44 42 42 41 39 38 42 46 44 47 46 45 43 49 54 59 55 45 38 32 29 29 26 25 24 26 34 40
21 34 45 42 39 41 42 44 44 44 44 43 41 40 46 45 41 39 38 36 38 40 40 48 51 50 47 53 70 75 74 61 53 45 37 36 34 31 31 30 30 29 30 38
25 24 43 51 49 40 40 42 40 39 40 43 41 41 41 40 41 42 43 46 53 54 51 54 58 57 74 92 90 79 62 56 50 41 37 37 40 36 35 36 39 39 36 35
22 26 27 40 47 42 39 38 38 37 38 42 42 42 41 41 43 50 57 56 56 54 65 69 75 87 95 78 67 58 57 55 46 41 41 46 59 67 65 52 45 43 45 46
22 25 27 34 44 49 49 51 52 50 45 44 46 48 50 50 54 56 56 62 71 83 82 75 78 71 59 58 64 65 57 48 48 59 64 64 64 68 78 93 95 86 74 71
23 24 28 31 43 55 65 64 61 61 60 65 64 60 59 56 59 64 68 68 72 71 74 71 70 68 71 69 60 57 62 82 81 74 75 81 86 89 83 77 79 83 87 96
26 26 28 30 36 45 52 59 60 62 63 60 55 54 51 54 64 66 72 81 78 74 79 81 69 66 65 81 86 85 80 88 96 96 92 84 79 74 70 72 73 73 73 70
34 31 31 33 38 47 48 48 57 59 56 57 53 57 55 61 68 85 88 80 75 70 76 82 100 100 100 100 100 100 100 94 84 76 71 67 64 58 54 50 49 50 49 47
44 42 42 41 41 42 44 47 51 52 60 63 71 65 64 61 62 72 90 98 100 91 80 72 70 68 57 58 64 65 60 53 50 49 50 46 43 45 44 47 46 46 46 46
76 64 60 54 53 58 60 58 59 60 71 86 96 94 92 88 87 87 77 65 59 59 62 59 45 53 44 42 38 32 32 32 33 35 37 37 36 38 44 50 61 58 44 40
75 85 79 84 85 82 82 83 86 84 82 82 79 80 76 69 61 58 54 48 40 34 31 23 25 30 23 20 22 27 30 29 30 31 32 38 46 49 46 44 36 35 37 37
68 72 63 72 58 84 99 92 84 76 71 65 49 38 36 37 35 32 27 23 23 24 24 22 23 22 31 37 37 31 37 41 43 46 52 57 58 63 62 59 57 51 46 38
37 42 47 44 43 42 42 45 56 52 44 38 32 28 27 28 28 28 32 35 35 35 27 30 37 54 58 72 82 66 62 58 57 59 70 81 83 72 72 71 68 67 60 62
28 25 27 31 43 40 44 60 62 62 56 49 38 40 44 44 41 38 38 45 51 51 39 40 57 78 91 98 88 62 68 70 68 85 81 83 88 84 87 80 84 82 80 76
42 38 32 34 33 30 36 39 45 50 52 40 41 41 48 42 40 37 40 43 41 44 47 59 74 100 100 86 73 76 74 79 99 94 95 88 78 70 68 61 54 51 52 44
100 92 94 100 69 35 62 52 40 29 27 33 34 36 35 36 37 30 29 34 42 46 50 95 100 91 79 69 71 78 92 98 95 92 85 80 68 51 47 43 40 31 20 16
69 81 89 88 88 92 100 93 90 76 66 69 60 55 58 49 38 34 41 42 44 66 75 62 64 80 90 86 92 98 99 94 88 81 64 50 40 36 27 23 20 14 11 9
78 75 69 72 64 78 78 76 72 70 66 89 98 75 63 53 45 43 50 85 90 61 60 71 87 93 100 100 97 93 90 68 49 45 35 31 28 20 14 10 10 9 8 7
83 100 100 100 100 82 57 60 60 71 75 74 68 77 86 89 84 76 60 51 56 74 76 88 96 98 100 94 73 54 41 36 28 21 22 18 15 12 9 7 7 6 6 5
100 97 91 76 87 88 99 100 99 100 100 85 74 75 63 53 51 51 51 60 68 74 80 92 82 81 60 50 37 36 31 21 16 12 12 9 8 7 7 7 6 5 4 3
100 94 84 94 100 98 87 76 74 78 78 74 63 58 58 57 53 49 54 63 70 72 73 60 60 38 31 28 20 19 14 10 8 7 7 6 5 4 4 4 4 3 3 3
Wind_Speed
88 83 80 78 76 72 68 62 57 54 54 52 50 48 48 44 45 46 46 47 48 50 51 52 54 56 58 61 64 67 70 73 76 78 78 78 79 82 83 85 79 70 62 52
90 85 82 81 77 73 69 63 59 56 54 54 55 54 50 50 51 50 50 51 52 53 54 56 58 60 63 66 68 71 74 77 78 79 79 79 81 83 84 79 70 60 52 45
91 88 83 80 77 75 71 67 62 62 61 57 58 58 54 54 54 54 55 56 57 57 59 60 61 64 67 70 73 75 76 78 79 79 79 80 83 84 81 72 59 52 44 41
89 88 83 80 76 75 71 69 67 66 62 62 61 60 59 57 59 59 59 61 62 63 65 66 67 68 71 73 74 76 78 79 78 78 78 83 84 82 74 60 52 46 40 38
82 87 85 81 78 76 73 71 69 68 65 63 64 62 64 63 62 61 63 65 67 68 69 69 70 72 74 75 76 80 77 77 78 78 83 84 83 73 64 52 47 44 39 38
81 85 86 83 80 77 75 73 71 69 68 65 67 65 66 68 67 66 68 70 71 72 72 73 76 75 76 76 76 75 76 78 79 83 85 83 73 62 53 47 44 42 40 40
77 78 83 84 81 79 77 74 72 70 70 69 71 68 68 72 71 72 74 76 76 77 79 74 73 73 73 74 74 76 80 82 85 87 84 76 60 51 49 47 45 44 43 43
74 70 72 78 81 79 78 76 75 73 73 74 73 71 72 74 75 76 77 77 75 73 72 69 70 71 73 78 80 82 84 87 89 87 78 63 55 51 49 48 47 46 46 46
75 72 67 69 76 78 77 76 76 76 74 75 75 75 76 79 79 77 75 74 72 69 68 70 71 75 80 83 85 88 90 90 87 76 62 55 55 54 54 53 52 52 52 50
72 72 69 65 67 71 75 73 71 73 74 75 75 75 76 76 74 72 70 68 68 70 74 75 79 83 87 89 91 91 89 82 68 61 61 62 63 63 64 62 62 61 60 60
62 66 66 63 60 63 66 70 70 70 70 69 69 68 68 67 66 66 67 70 74 77 80 83 86 89 91 89 88 82 72 70 72 72 72 72 72 72 72 72 71 70 69 68
50 57 61 62 61 59 59 61 63 62 62 63 63 62 66 65 66 68 72 76 79 82 84 87 86 84 80 74 73 75 78 79 79 79 79 81 81 81 81 81 81 80 79 78
30 40 46 55 59 58 58 60 60 62 64 65 66 67 66 68 72 74 76 77 77 75 71 69 68 71 75 78 78 79 82 84 85 86 86 86 86 87 88 89 89 91 92 92
24 27 31 37 44 50 54 58 60 60 62 63 65 67 67 64 62 59 56 56 57 56 54 57 60 62 66 73 78 82 84 86 87 88 88 90 90 91 93 95 96 95 95 95
11 11 13 18 22 26 30 33 36 39 39 36 40 43 43 44 44 46 48 52 54 60 63 64 69 71 71 74 79 79 82 87 90 93 96 98 99 98 98 98 98 100 102 102
3 7 8 11 13 15 22 26 27 32 36 38 41 46 48 49 52 53 56 61 66 71 72 75 78 83 81 83 84 85 88 91 93 97 99 98 97 98 101 104 105 105 105 103
9 11 12 19 20 25 29 36 39 41 44 46 50 53 56 59 62 65 67 71 75 78 79 79 80 82 86 89 95 98 100 101 103 105 106 107 107 108 108 107 106 104 105 104
26 27 28 29 33 33 40 44 49 53 55 56 59 61 63 65 67 69 72 77 79 82 84 83 88 92 95 99 105 113 114 114 114 113 110 110 106 105 106 107 107 104 104 106
32 34 37 37 42 43 47 50 54 56 58 63 64 67 71 76 78 79 81 83 88 90 90 94 97 100 105 109 115 116 119 123 122 121 117 115 112 111 111 111 108 107 109 110
40 39 43 48 47 45 48 55 58 61 61 67 72 75 78 80 84 88 91 94 95 96 96 97 101 107 111 118 122 126 128 127 128 124 123 122 120 114 108 108 108 108 107 108
50 54 55 57 57 59 69 70 69 70 74 77 81 87 90 91 93 96 97 99 99 100 103 107 111 116 120 126 128 131 131 132 133 130 124 123 121 112 108 107 108 109 110 109
56 58 62 64 65 66 69 73 77 80 83 86 88 91 92 96 100 103 101 102 103 107 110 113 117 123 130 136 134 137 136 136 130 125 121 116 111 109 108 109 110 112 111 110
65 68 69 72 72 75 77 80 84 86 88 91 95 98 100 105 109 109 110 115 118 121 120 124 127 131 137 139 142 138 130 125 118 113 108 106 107 107 108 108 107 109 109 109
75 80 79 77 80 85 85 89 93 94 96 98 101 104 107 108 112 117 120 119 120 124 127 132 136 140 140 142 128 123 117 112 107 104 104 103 102 103 105 106 106 105 104 103
83 87 88 84 89 91 93 95 96 98 104 109 109 111 112 116 120 121 123 126 130 133 137 143 144 145 133 124 115 110 110 108 104 101 99 98 99 99 97 98 100 100 97 94
93 94 93 93 98 99 100 104 107 109 110 113 117 120 123 123 124 127 130 135 138 142 145 142 140 128 118 112 105 103 103 101 98 96 96 94 91 89 88 89 89 90 87 85
Wind_Direction
206 207 209 211 213 216 222 225 226 228 229 229 232 236 239 243 248 252 256 261 266 270 274 277 281 284 288 290 291 293 295 299 300 301 305 307 308 308 312 314 314 312 312 312
206 207 210 212 214 217 220 223 226 228 230 230 234 239 243 248 251 254 258 264 269 274 279 282 285 287 290 292 292 294 296 297 299 302 304 306 306 309 313 314 312 310 309 311
206 209 210 213 215 219 221 222 225 228 230 233 236 241 245 250 255 259 262 267 272 276 280 283 286 286 288 291 293 293 294 296 298 301 303 305 306 311 314 312 310 308 306 308
207 210 211 214 216 219 221 224 228 231 233 234 237 242 246 251 257 262 267 271 274 276 279 283 285 287 288 290 291 291 292 295 298 301 303 304 309 313 313 309 309 306 302 305
210 210 213 215 218 220 223 226 229 233 235 238 240 243 251 254 258 263 268 272 275 278 281 283 285 286 287 288 288 290 293 296 298 302 303 306 310 311 309 306 309 305 298 300
208 210 213 216 219 222 225 228 231 235 239 241 245 247 252 256 259 263 267 270 274 277 280 282 285 285 286 287 289 291 294 297 300 301 304 307 309 307 305 307 308 303 296 296
209 211 214 217 220 223 226 229 233 237 242 244 247 250 253 259 262 266 269 272 274 277 280 284 283 285 288 289 292 294 296 298 299 302 304 304 304 300 299 302 303 299 296 295
211 214 216 219 222 225 228 231 235 239 242 246 250 254 257 261 265 269 272 275 278 281 282 283 285 288 291 293 293 295 297 298 300 301 302 298 295 293 294 296 297 297 295 294
211 215 219 221 224 227 230 234 237 240 244 248 252 255 259 263 266 269 272 277 280 281 283 286 288 289 291 293 294 295 297 299 300 299 295 291 291 292 292 292 292 291 291 291
214 217 221 225 228 230 233 237 241 243 247 251 255 259 262 264 268 272 275 276 278 282 284 288 290 291 292 293 295 296 296 297 294 292 291 290 290 290 290 289 289 288 288 288
215 220 223 228 231 234 237 240 244 247 250 254 258 261 265 267 270 272 275 278 282 285 287 288 289 291 293 294 293 294 292 291 292 292 291 291 289 289 288 288 287 286 285 284
216 220 224 229 233 236 240 244 248 251 253 255 257 261 265 269 273 277 280 281 283 284 288 291 292 291 291 289 289 290 291 292 292 292 291 290 289 289 288 287 286 285 284 283
222 226 230 231 234 239 244 249 251 254 257 261 263 266 270 274 276 278 281 284 285 287 289 290 289 289 291 291 291 290 291 292 292 292 292 291 291 290 289 288 287 286 286 285
210 218 224 229 236 242 247 252 255 258 261 264 268 269 273 275 278 280 282 284 286 289 291 291 293 297 299 295 294 294 294 293 292 292 291 291 290 289 288 287 286 285 283 282
146 180 209 226 235 243 249 253 258 262 265 268 271 274 273 274 278 279 280 282 285 285 286 286 295 298 300 305 305 300 297 296 294 294 293 292 291 289 288 287 287 287 285 284
256 249 242 245 253 262 262 257 258 263 269 271 276 279 279 278 282 283 281 283 285 289 290 288 286 285 289 291 296 298 299 298 296 297 296 295 294 293 292 290 287 286 283 282
270 268 269 276 273 287 287 287 286 283 282 284 282 283 284 283 283 285 285 288 289 290 290 291 292 297 301 301 302 303 304 304 303 302 302 299 296 294 292 291 289 287 286 283
286 287 286 283 285 282 282 287 288 288 285 282 282 282 285 287 288 289 288 292 293 294 293 294 298 298 299 301 302 304 303 303 303 302 301 301 298 295 293 291 290 289 287 286
287 282 278 276 277 280 283 281 281 281 281 282 282 282 284 285 287 287 289 290 290 290 294 296 295 296 298 299 299 301 302 304 303 302 303 304 304 300 299 297 292 290 289 288
294 294 286 279 279 282 284 283 284 285 284 283 283 284 285 285 288 289 289 289 289 290 293 296 296 296 296 298 299 300 300 302 304 306 304 304 303 300 297 294 291 288 286 284
296 294 294 293 289 288 295 293 292 291 286 282 285 287 287 285 286 289 288 288 289 292 294 294 295 295 296 299 301 301 301 304 306 306 304 303 301 297 293 290 288 286 283 282
289 289 291 291 292 291 290 290 293 294 293 291 291 291 292 291 289 291 294 295 295 295 295 296 299 301 303 304 303 305 305 304 304 302 301 299 295 291 289 289 287 285 284 283
288 291 290 290 291 290 287 288 291 290 290 288 288 289 291 292 293 294 297 298 297 297 299 300 301 303 304 305 304 303 302 301 300 299 296 293 292 289 287 286 285 284 284 285
292 292 290 289 292 292 295 292 290 289 289 290 291 291 293 293 294 294 295 297 299 300 301 303 303 304 304 305 304 302 300 298 296 293 293 291 289 288 287 287 286 287 286 286
290 289 290 290 290 291 290 290 292 293 293 294 294 294 294 294 295 296 298 300 302 304 304 305 306 305 305 304 301 299 297 294 293 292 290 287 285 285 286 287 287 287 287 288
289 290 292 290 289 291 291 294 295 294 294 294 295 296 296 297 298 299 301 303 304 305 305 305 306 303 301 299 297 295 292 291 291 288 286 285 285 285 287 287 286 288 288 287